Terminal Aerodrome Forecast
Issued by NWS

Home | Current Version | Previous Version | Graphics & Text | Print | Product List | Glossary On
Versions: 1 2 3 4 5 6 7 8 9 10 11 12 13 14 15 16 17 18 19 20 21 22 23 24 25 26 27 28 29 30 31
000
FTUS43 KLOT 261100
TAFDPA
TAF
KDPA 261136Z 2612/2712 23007KT P6SM VCTS SCT035 BKN060CB
      TEMPO 2612/2614 3SM TSRA BKN015 OVC035CB
     FM261400 35008KT P6SM VCSH SCT040 BKN250
     FM261600 34007KT P6SM SCT040 BKN250
      TEMPO 2616/2618 6SM SHRA BKN040
     FM262200 02008KT P6SM FEW040 BKN250
     FM270100 03005KT P6SM FEW150 BKN250=

USA.gov is the U.S. government's official web portal to all federal, state and local government web resources and services.